• In Sweden
  • List of Countries
  • For 7 days
  • Water Temperature
  • Satellite Maps
  • Weather Map
  • Weather Widgets
  • user-avatar
    Login

    Hourly Weather Zhirovka

    Today, 26 September, Wednesday

    Time Temperature Precipitation Wind Pressure Humidity
    00:00 +5°C° 0 mm 4 mps 748 mmHg 82%
    01:00 +4°C° 0 mm 4 mps 748 mmHg 84%
    02:00 +4°C° 0 mm 2 mps 749 mmHg 88%
    03:00 +3°C° 0 mm 3 mps 749 mmHg 89%
    04:00 +2°C° 0 mm 3 mps 750 mmHg 89%
    05:00 +1°C° 0 mm 4 mps 750 mmHg 90%
    06:00 +3°C° 0 mm 4 mps 751 mmHg 86%
    07:00 +4°C° 0 mm 4 mps 752 mmHg 81%
    08:00 +4°C° 0 mm 4 mps 752 mmHg 76%
    09:00 +6°C° 0 mm 4 mps 752 mmHg 69%
    10:00 +7°C° 0 mm 4 mps 753 mmHg 62%
    11:00 +8°C° 0 mm 4 mps 753 mmHg 55%
    12:00 +10°C° 0 mm 4 mps 753 mmHg 53%
    13:00 +10°C° 0 mm 4 mps 753 mmHg 52%
    14:00 +10°C° 0 mm 5 mps 752 mmHg 50%
    15:00 +10°C° 0 mm 4 mps 752 mmHg 56%
    16:00 +8°C° 0 mm 4 mps 752 mmHg 62%
    17:00 +8°C° 0 mm 3 mps 752 mmHg 68%
    18:00 +7°C° 0 mm 4 mps 752 mmHg 69%
    19:00 +6°C° 0 mm 4 mps 751 mmHg 69%
    20:00 +6°C° 0 mm 5 mps 751 mmHg 70%
    21:00 +5°C° 0 mm 6 mps 750 mmHg 67%
    22:00 +5°C° 0 mm 7 mps 749 mmHg 65%
    23:00 +6°C° 0 mm 7 mps 748 mmHg 62%

    Tomorrow, 27 September, Thursday

    Time Temperature Precipitation Wind Pressure Humidity
    00:00 +5°C° 0.3 mm 8 mps 747 mmHg 64%
    01:00 +5°C° 0.3 mm 8 mps 746 mmHg 67%
    02:00 +5°C° 0.3 mm 9 mps 745 mmHg 69%
    03:00 +5°C° 0.8 mm 10 mps 744 mmHg 72%
    04:00 +3°C° 0.8 mm 10 mps 743 mmHg 76%
    05:00 +3°C° 0.8 mm 11 mps 742 mmHg 79%
    06:00 +5°C° 0.6 mm 10 mps 741 mmHg 81%
    07:00 +5°C° 0.6 mm 10 mps 741 mmHg 84%
    08:00 +5°C° 0.6 mm 10 mps 740 mmHg 86%
    09:00 +6°C° 0.3 mm 9 mps 740 mmHg 85%
    10:00 +6°C° 0.3 mm 9 mps 740 mmHg 84%
    11:00 +7°C° 0.3 mm 8 mps 740 mmHg 84%
    12:00 +8°C° 0.1 mm 9 mps 740 mmHg 77%
    13:00 +10°C° 0.1 mm 9 mps 741 mmHg 70%
    14:00 +11°C° 0.1 mm 9 mps 741 mmHg 64%
    15:00 +10°C° 0.1 mm 8 mps 741 mmHg 65%
    16:00 +10°C° 0.1 mm 6 mps 742 mmHg 67%
    17:00 +9°C° 0.1 mm 5 mps 742 mmHg 68%
    18:00 +8°C° 0 mm 5 mps 742 mmHg 70%
    19:00 +8°C° 0 mm 5 mps 743 mmHg 73%
    20:00 +7°C° 0 mm 5 mps 743 mmHg 76%
    21:00 +7°C° 0 mm 5 mps 744 mmHg 77%
    22:00 +6°C° 0 mm 5 mps 744 mmHg 79%
    23:00 +6°C° 0 mm 5 mps 744 mmHg 80%

    Day after tomorrow, 28 September, Friday

    Time Temperature Precipitation Wind Pressure Humidity
    00:00 +6°C° 0 mm 5 mps 744 mmHg 81%
    01:00 +6°C° 0 mm 5 mps 744 mmHg 82%
    02:00 +5°C° 0 mm 5 mps 744 mmHg 83%
    03:00 +5°C° 0 mm 5 mps 743 mmHg 84%
    04:00 +5°C° 0 mm 6 mps 743 mmHg 84%
    05:00 +5°C° 0 mm 7 mps 742 mmHg 85%
    06:00 +6°C° 0 mm 8 mps 742 mmHg 82%
    07:00 +7°C° 0 mm 9 mps 741 mmHg 79%
    08:00 +9°C° 0 mm 10 mps 740 mmHg 77%
    09:00 +11°C° 0 mm 10 mps 740 mmHg 76%
    10:00 +12°C° 0 mm 10 mps 740 mmHg 75%
    11:00 +13°C° 0 mm 10 mps 739 mmHg 74%
    12:00 +13°C° 0.1 mm 10 mps 739 mmHg 76%
    13:00 +13°C° 0.1 mm 10 mps 738 mmHg 79%
    14:00 +13°C° 0.1 mm 10 mps 738 mmHg 81%
    15:00 +12°C° 0.6 mm 9 mps 738 mmHg 81%
    16:00 +12°C° 0.6 mm 9 mps 738 mmHg 81%
    17:00 +12°C° 0.6 mm 8 mps 739 mmHg 81%
    18:00 +10°C° 0.1 mm 7 mps 740 mmHg 82%
    19:00 +9°C° 0.1 mm 6 mps 741 mmHg 82%
    20:00 +7°C° 0.1 mm 5 mps 742 mmHg 83%
    21:00 +6°C° 0 mm 4 mps 743 mmHg 85%
    22:00 +5°C° 0 mm 4 mps 744 mmHg 87%
    23:00 +4°C° 0 mm 3 mps 745 mmHg 88%

    29 September, Saturday

    Time Temperature Precipitation Wind Pressure Humidity
    00:00 +3°C° 0 mm 3 mps 745 mmHg 89%
    01:00 +4°C° 0 mm 2 mps 746 mmHg 90%
    02:00 +3°C° 0 mm 2 mps 747 mmHg 91%
    03:00 +3°C° 0 mm 2 mps 747 mmHg 91%
    04:00 +3°C° 0 mm 2 mps 747 mmHg 91%
    05:00 +2°C° 0 mm 2 mps 748 mmHg 91%
    06:00 +4°C° 0 mm 2 mps 748 mmHg 86%
    07:00 +5°C° 0 mm 2 mps 748 mmHg 80%
    08:00 +6°C° 0 mm 2 mps 749 mmHg 75%
    09:00 +7°C° 0 mm 2 mps 749 mmHg 69%
    10:00 +8°C° 0 mm 2 mps 749 mmHg 64%
    11:00 +10°C° 0 mm 3 mps 750 mmHg 58%
    12:00 +10°C° 0 mm 3 mps 750 mmHg 57%
    13:00 +10°C° 0 mm 3 mps 750 mmHg 56%
    14:00 +11°C° 0 mm 3 mps 750 mmHg 56%
    15:00 +10°C° 0 mm 2 mps 750 mmHg 60%
    16:00 +9°C° 0 mm 2 mps 750 mmHg 65%
    17:00 +9°C° 0 mm 1 mps 750 mmHg 70%
    18:00 +8°C° 0 mm 1 mps 751 mmHg 72%
    19:00 +6°C° 0 mm 2 mps 751 mmHg 74%
    20:00 +5°C° 0 mm 2 mps 752 mmHg 77%
    21:00 +5°C° 0 mm 2 mps 752 mmHg 76%
    22:00 +4°C° 0 mm 2 mps 753 mmHg 76%
    23:00 +4°C° 0 mm 1 mps 753 mmHg 76%

    30 September, Sunday

    Time Temperature Precipitation Wind Pressure Humidity
    00:00 +4°C° 0 mm 1 mps 753 mmHg 77%
    01:00 +4°C° 0 mm 1 mps 753 mmHg 77%
    02:00 +3°C° 0 mm 1 mps 754 mmHg 77%
    03:00 +3°C° 0 mm 1 mps 754 mmHg 79%
    04:00 +3°C° 0 mm 1 mps 754 mmHg 80%
    05:00 +3°C° 0 mm 1 mps 754 mmHg 81%
    06:00 +4°C° 0 mm 1 mps 755 mmHg 77%
    07:00 +5°C° 0 mm 1 mps 755 mmHg 72%
    08:00 +5°C° 0 mm 2 mps 755 mmHg 68%
    09:00 +7°C° 0 mm 2 mps 755 mmHg 62%
    10:00 +8°C° 0 mm 3 mps 755 mmHg 57%
    11:00 +10°C° 0 mm 3 mps 755 mmHg 52%
    12:00 +10°C° 0 mm 3 mps 755 mmHg 50%
    13:00 +10°C° 0 mm 4 mps 754 mmHg 48%
    14:00 +11°C° 0 mm 4 mps 754 mmHg 47%
    15:00 +8°C° 0 mm 4 mps 754 mmHg 52%
    16:00 +8°C° 0 mm 3 mps 754 mmHg 57%
    17:00 +7°C° 0 mm 2 mps 753 mmHg 61%
    18:00 +7°C° 0 mm 3 mps 753 mmHg 63%
    19:00 +5°C° 0 mm 3 mps 753 mmHg 65%
    20:00 +4°C° 0 mm 3 mps 753 mmHg 67%
    21:00 +4°C° 0 mm 3 mps 753 mmHg 68%
    22:00 +4°C° 0 mm 3 mps 753 mmHg 70%
    23:00 +4°C° 0 mm 3 mps 753 mmHg 72%

    1 October, Monday

    Time Temperature Precipitation Wind Pressure Humidity
    00:00 +3°C° 0 mm 3 mps 753 mmHg 75%
    01:00 +3°C° 0 mm 3 mps 753 mmHg 77%
    02:00 +3°C° 0 mm 3 mps 753 mmHg 80%
    03:00 +3°C° 0 mm 3 mps 753 mmHg 81%
    04:00 +3°C° 0 mm 3 mps 753 mmHg 83%
    05:00 +2°C° 0 mm 3 mps 753 mmHg 84%
    06:00 +3°C° 0 mm 3 mps 753 mmHg 80%
    07:00 +5°C° 0 mm 4 mps 753 mmHg 76%
    08:00 +6°C° 0 mm 4 mps 753 mmHg 71%
    09:00 +7°C° 0 mm 4 mps 753 mmHg 66%
    10:00 +10°C° 0 mm 4 mps 753 mmHg 60%
    11:00 +11°C° 0 mm 4 mps 753 mmHg 55%
    12:00 +12°C° 0 mm 4 mps 752 mmHg 53%
    13:00 +12°C° 0 mm 4 mps 752 mmHg 52%
    14:00 +13°C° 0 mm 4 mps 752 mmHg 51%
    15:00 +11°C° 0 mm 3 mps 752 mmHg 56%
    16:00 +10°C° 0 mm 3 mps 752 mmHg 62%
    17:00 +9°C° 0 mm 2 mps 751 mmHg 67%
    18:00 +8°C° 0 mm 2 mps 751 mmHg 69%
    19:00 +7°C° 0 mm 2 mps 752 mmHg 71%
    20:00 +7°C° 0 mm 2 mps 752 mmHg 73%
    21:00 +6°C° 0 mm 2 mps 752 mmHg 74%
    22:00 +6°C° 0 mm 2 mps 752 mmHg 75%
    23:00 +6°C° 0 mm 2 mps 752 mmHg 76%
    Show more